User: anonymous   Login
Location: Caltech
(34.1382°N, 118.1253°W)
Time: 13:57:37
(UTC-07:00)
Language:

Cosmos 1758 Rocket - Orbit

View from above orbital plane
View from above orbital plane
View from above satellite
View from above satellite

Ground track
Ground track

The orbit data is extracted from the following two-line orbital elements,

1 16792U 86046B   16178.09338309  .00000097  00000-0  89543-5 0  9997
2 16792  82.4816 177.4529 0025022  28.9575  34.9816 14.83073533622107
Epoch (UTC): 26 June 2016 02:14:28
Eccentricity: 0.0025022
inclination: 82.4816°
perigee height: 602 km
apogee height: 637 km
right ascension of ascending node: 177.4529°
argument of perigee: 28.9575°
revolutions per day: 14.83073533
mean anomaly at epoch: 34.9816°
orbit number at epoch: 62210

The dashed part of the orbit path shows where the satellite is in the earth's shadow,  

DLR